Year,Month,Day,Hour,Minute,Value (Times are PST for windgust in km/hr)
2020,01,15,00,00,25.70
2020,01,15,00,01,22.50
2020,01,15,00,02,17.70
2020,01,15,00,03,22.50
2020,01,15,00,04,19.30
2020,01,15,00,05,20.90
2020,01,15,00,06,22.50
2020,01,15,00,07,24.20
2020,01,15,00,08,14.50
2020,01,15,00,09,17.70
2020,01,15,00,10,16.10
2020,01,15,00,11,22.50
2020,01,15,00,12,20.90
2020,01,15,00,13,17.70
2020,01,15,00,14,17.70
2020,01,15,00,15,19.30
2020,01,15,00,16,16.10
2020,01,15,00,17,14.50
2020,01,15,00,18,17.70
2020,01,15,00,19,17.70
2020,01,15,00,20,17.70
2020,01,15,00,21,17.70
2020,01,15,00,22,22.50
2020,01,15,00,23,17.70
2020,01,15,00,24,20.90
2020,01,15,00,25,14.50
2020,01,15,00,26,11.30
2020,01,15,00,27,16.10
2020,01,15,00,28,19.30
2020,01,15,00,29,12.90
2020,01,15,00,30,16.10
2020,01,15,00,31,16.10
2020,01,15,00,32,12.90
2020,01,15,00,33,16.10
2020,01,15,00,34,20.90
2020,01,15,00,35,20.90
2020,01,15,00,36,14.50
2020,01,15,00,37,22.50
2020,01,15,00,38,20.90
2020,01,15,00,39,19.30
2020,01,15,00,40,24.20
2020,01,15,00,41,22.50
2020,01,15,00,42,24.20
2020,01,15,00,43,19.30
2020,01,15,00,44,17.70
2020,01,15,00,45,20.90
2020,01,15,00,46,22.50
2020,01,15,00,47,22.50
2020,01,15,00,48,16.10
2020,01,15,00,49,20.90
2020,01,15,00,50,22.50
2020,01,15,00,51,19.30
2020,01,15,00,52,20.90
2020,01,15,00,53,16.10
2020,01,15,00,54,25.70
2020,01,15,00,55,20.90
2020,01,15,00,56,22.50
2020,01,15,00,57,20.90
2020,01,15,00,58,19.30
2020,01,15,00,59,20.90
2020,01,15,01,00,22.50
2020,01,15,01,01,22.50
2020,01,15,01,02,19.30
2020,01,15,01,03,22.50
2020,01,15,01,04,20.90
2020,01,15,01,05,19.30
2020,01,15,01,06,16.10
2020,01,15,01,07,20.90
2020,01,15,01,08,17.70
2020,01,15,01,09,17.70
2020,01,15,01,10,19.30
2020,01,15,01,11,17.70
2020,01,15,01,12,17.70
2020,01,15,01,13,9.60
2020,01,15,01,14,19.30
2020,01,15,01,15,16.10
2020,01,15,01,16,19.30
2020,01,15,01,17,16.10
2020,01,15,01,18,24.20
2020,01,15,01,19,22.50
2020,01,15,01,20,22.50
2020,01,15,01,21,17.70
2020,01,15,01,22,17.70
2020,01,15,01,23,11.30
2020,01,15,01,24,16.10
2020,01,15,01,25,17.70
2020,01,15,01,26,16.10
2020,01,15,01,27,20.90
2020,01,15,01,28,16.10
2020,01,15,01,29,12.90
2020,01,15,01,30,14.50
2020,01,15,01,31,9.60
2020,01,15,01,32,6.40
2020,01,15,01,33,8.10
2020,01,15,01,34,17.70
2020,01,15,01,35,11.30
2020,01,15,01,36,17.70
2020,01,15,01,37,20.90
2020,01,15,01,38,19.30
2020,01,15,01,39,20.90
2020,01,15,01,40,19.30
2020,01,15,01,41,14.50
2020,01,15,01,42,22.50
2020,01,15,01,43,19.30
2020,01,15,01,44,22.50
2020,01,15,01,45,17.70
2020,01,15,01,46,17.70
2020,01,15,01,47,17.70
2020,01,15,01,48,17.70
2020,01,15,01,49,11.30
2020,01,15,01,50,20.90
2020,01,15,01,51,22.50
2020,01,15,01,52,19.30
2020,01,15,01,53,20.90
2020,01,15,01,54,16.10
2020,01,15,01,55,16.10
2020,01,15,01,56,12.90
2020,01,15,01,57,16.10
2020,01,15,01,58,16.10
2020,01,15,01,59,20.90
2020,01,15,02,00,16.10
2020,01,15,02,01,14.50
2020,01,15,02,02,17.70
2020,01,15,02,03,17.70
2020,01,15,02,04,20.90
2020,01,15,02,05,20.90
2020,01,15,02,06,19.30
2020,01,15,02,07,16.10
2020,01,15,02,08,16.10
2020,01,15,02,09,12.90
2020,01,15,02,10,11.30
2020,01,15,02,11,11.30
2020,01,15,02,12,16.10
2020,01,15,02,13,16.10
2020,01,15,02,14,20.90
2020,01,15,02,15,16.10
2020,01,15,02,16,16.10
2020,01,15,02,17,9.60
2020,01,15,02,18,14.50
2020,01,15,02,19,17.70
2020,01,15,02,20,14.50
2020,01,15,02,21,14.50
2020,01,15,02,22,8.10
2020,01,15,02,23,11.30
2020,01,15,02,24,9.60
2020,01,15,02,25,9.60
2020,01,15,02,26,16.10
2020,01,15,02,27,16.10
2020,01,15,02,28,12.90
2020,01,15,02,29,19.30
2020,01,15,02,30,19.30
2020,01,15,02,31,16.10
2020,01,15,02,32,19.30
2020,01,15,02,33,19.30
2020,01,15,02,34,16.10
2020,01,15,02,35,16.10
2020,01,15,02,36,22.50
2020,01,15,02,37,16.10
2020,01,15,02,38,16.10
2020,01,15,02,39,11.30
2020,01,15,02,40,14.50
2020,01,15,02,41,11.30
2020,01,15,02,42,14.50
2020,01,15,02,43,16.10
2020,01,15,02,44,14.50
2020,01,15,02,45,9.60
2020,01,15,02,46,11.30
2020,01,15,02,47,11.30
2020,01,15,02,48,11.30
2020,01,15,02,49,16.10
2020,01,15,02,50,16.10
2020,01,15,02,51,14.50
2020,01,15,02,52,12.90
2020,01,15,02,53,11.30
2020,01,15,02,54,16.10
2020,01,15,02,55,11.30
2020,01,15,02,56,8.10
2020,01,15,02,57,12.90
2020,01,15,02,58,9.60
2020,01,15,02,59,8.10
2020,01,15,03,00,11.30
2020,01,15,03,01,8.10
2020,01,15,03,02,11.30
2020,01,15,03,03,12.90
2020,01,15,03,04,11.30
2020,01,15,03,05,9.60
2020,01,15,03,06,16.10
2020,01,15,03,07,16.10
2020,01,15,03,08,14.50
2020,01,15,03,09,14.50
2020,01,15,03,10,14.50
2020,01,15,03,11,9.60
2020,01,15,03,12,17.70
2020,01,15,03,13,11.30
2020,01,15,03,14,11.30
2020,01,15,03,15,8.10
2020,01,15,03,16,8.10
2020,01,15,03,17,8.10
2020,01,15,03,18,9.60
2020,01,15,03,19,11.30
2020,01,15,03,20,11.30
2020,01,15,03,21,14.50
2020,01,15,03,22,17.70
2020,01,15,03,23,17.70
2020,01,15,03,24,19.30
2020,01,15,03,25,16.10
2020,01,15,03,26,16.10
2020,01,15,03,27,16.10
2020,01,15,03,28,14.50
2020,01,15,03,29,16.10
2020,01,15,03,30,14.50
2020,01,15,03,31,16.10
2020,01,15,03,32,9.60
2020,01,15,03,33,11.30
2020,01,15,03,34,8.10
2020,01,15,03,35,6.40
2020,01,15,03,36,8.10
2020,01,15,03,37,11.30
2020,01,15,03,38,8.10
2020,01,15,03,39,8.10
2020,01,15,03,40,11.30
2020,01,15,03,41,12.90
2020,01,15,03,42,17.70
2020,01,15,03,43,17.70
2020,01,15,03,44,8.10
2020,01,15,03,45,11.30
2020,01,15,03,46,14.50
2020,01,15,03,47,12.90
2020,01,15,03,48,9.60
2020,01,15,03,49,19.30
2020,01,15,03,50,19.30
2020,01,15,03,51,11.30
2020,01,15,03,52,14.50
2020,01,15,03,53,16.10
2020,01,15,03,54,17.70
2020,01,15,03,55,11.30
2020,01,15,03,56,11.30
2020,01,15,03,57,11.30
2020,01,15,03,58,9.60
2020,01,15,03,59,9.60
2020,01,15,04,00,14.50
2020,01,15,04,01,12.90
2020,01,15,04,02,16.10
2020,01,15,04,03,12.90
2020,01,15,04,04,12.90
2020,01,15,04,05,8.10
2020,01,15,04,06,12.90
2020,01,15,04,07,14.50
2020,01,15,04,08,9.60
2020,01,15,04,09,14.50
2020,01,15,04,10,16.10
2020,01,15,04,11,11.30
2020,01,15,04,12,12.90
2020,01,15,04,13,9.60
2020,01,15,04,14,14.50
2020,01,15,04,15,14.50
2020,01,15,04,16,17.70
2020,01,15,04,17,17.70
2020,01,15,04,18,17.70
2020,01,15,04,19,12.90
2020,01,15,04,20,19.30
2020,01,15,04,21,12.90
2020,01,15,04,22,19.30
2020,01,15,04,23,22.50
2020,01,15,04,24,24.20
2020,01,15,04,25,22.50
2020,01,15,04,26,20.90
2020,01,15,04,27,24.20
2020,01,15,04,28,22.50
2020,01,15,04,29,16.10
2020,01,15,04,30,19.30
2020,01,15,04,31,20.90
2020,01,15,04,32,22.50
2020,01,15,04,33,17.70
2020,01,15,04,34,19.30
2020,01,15,04,35,19.30
2020,01,15,04,36,16.10
2020,01,15,04,37,17.70
2020,01,15,04,38,19.30
2020,01,15,04,39,14.50
2020,01,15,04,40,17.70
2020,01,15,04,41,17.70
2020,01,15,04,42,19.30
2020,01,15,04,43,17.70
2020,01,15,04,44,20.90
2020,01,15,04,45,16.10
2020,01,15,04,46,17.70
2020,01,15,04,47,19.30
2020,01,15,04,48,17.70
2020,01,15,04,49,16.10
2020,01,15,04,50,16.10
2020,01,15,04,51,22.50
2020,01,15,04,52,19.30
2020,01,15,04,53,17.70
2020,01,15,04,54,19.30
2020,01,15,04,55,19.30
2020,01,15,04,56,19.30
2020,01,15,04,57,19.30
2020,01,15,04,58,20.90
2020,01,15,04,59,22.50
2020,01,15,05,00,19.30
2020,01,15,05,01,24.20
2020,01,15,05,02,19.30
2020,01,15,05,03,17.70
2020,01,15,05,04,22.50
2020,01,15,05,05,20.90
2020,01,15,05,06,17.70
2020,01,15,05,07,17.70
2020,01,15,05,08,11.30
2020,01,15,05,09,14.50
2020,01,15,05,10,22.50
2020,01,15,05,11,20.90
2020,01,15,05,12,19.30
2020,01,15,05,13,19.30
2020,01,15,05,14,16.10
2020,01,15,05,15,19.30
2020,01,15,05,16,19.30
2020,01,15,05,17,19.30
2020,01,15,05,18,19.30
2020,01,15,05,19,22.50
2020,01,15,05,20,17.70
2020,01,15,05,21,16.10
2020,01,15,05,22,19.30
2020,01,15,05,23,17.70
2020,01,15,05,24,17.70
2020,01,15,05,25,22.50
2020,01,15,05,26,20.90
2020,01,15,05,27,19.30
2020,01,15,05,28,24.20
2020,01,15,05,29,19.30
2020,01,15,05,30,17.70
2020,01,15,05,31,22.50
2020,01,15,05,32,20.90
2020,01,15,05,33,16.10
2020,01,15,05,34,24.20
2020,01,15,05,35,20.90
2020,01,15,05,36,22.50
2020,01,15,05,37,17.70
2020,01,15,05,38,19.30
2020,01,15,05,39,19.30
2020,01,15,05,40,17.70
2020,01,15,05,41,19.30
2020,01,15,05,42,20.90
2020,01,15,05,43,24.20
2020,01,15,05,44,25.70
2020,01,15,05,45,20.90
2020,01,15,05,46,22.50
2020,01,15,05,47,22.50
2020,01,15,05,48,20.90
2020,01,15,05,49,29.00
2020,01,15,05,50,24.20
2020,01,15,05,51,20.90
2020,01,15,05,52,19.30
2020,01,15,05,53,20.90
2020,01,15,05,54,20.90
2020,01,15,05,55,24.20
2020,01,15,05,56,17.70
2020,01,15,05,57,20.90
2020,01,15,05,58,25.70
2020,01,15,05,59,25.70
2020,01,15,06,00,19.30
2020,01,15,06,01,20.90
2020,01,15,06,02,17.70
2020,01,15,06,03,29.00
2020,01,15,06,04,20.90
2020,01,15,06,05,24.20
2020,01,15,06,06,24.20
2020,01,15,06,07,27.40
2020,01,15,06,08,20.90
2020,01,15,06,09,25.70
2020,01,15,06,10,19.30
2020,01,15,06,11,19.30
2020,01,15,06,12,19.30
2020,01,15,06,13,24.20
2020,01,15,06,14,19.30
2020,01,15,06,15,19.30
2020,01,15,06,16,22.50
2020,01,15,06,17,16.10
2020,01,15,06,18,22.50
2020,01,15,06,19,20.90
2020,01,15,06,20,17.70
2020,01,15,06,21,17.70
2020,01,15,06,22,22.50
2020,01,15,06,23,25.70
2020,01,15,06,24,19.30
2020,01,15,06,25,22.50
2020,01,15,06,26,19.30
2020,01,15,06,27,27.40
2020,01,15,06,28,25.70
2020,01,15,06,29,29.00
2020,01,15,06,30,27.40
2020,01,15,06,31,22.50
2020,01,15,06,32,27.40
2020,01,15,06,33,29.00
2020,01,15,06,34,30.60
2020,01,15,06,35,29.00
2020,01,15,06,36,29.00
2020,01,15,06,37,32.20
2020,01,15,06,38,27.40
2020,01,15,06,39,29.00
2020,01,15,06,40,29.00
2020,01,15,06,41,25.70
2020,01,15,06,42,27.40
2020,01,15,06,43,30.60
2020,01,15,06,44,29.00
2020,01,15,06,45,38.60
2020,01,15,06,46,27.40
2020,01,15,06,47,30.60
2020,01,15,06,48,32.20
2020,01,15,06,49,27.40
2020,01,15,06,50,25.70
2020,01,15,06,51,25.70
2020,01,15,06,52,22.50
2020,01,15,06,53,20.90
2020,01,15,06,54,27.40
2020,01,15,06,55,24.20
2020,01,15,06,56,30.60
2020,01,15,06,57,29.00
2020,01,15,06,58,24.20
2020,01,15,06,59,32.20
2020,01,15,07,00,25.70
2020,01,15,07,01,22.50
2020,01,15,07,02,19.30
2020,01,15,07,03,27.40
2020,01,15,07,04,32.20
2020,01,15,07,05,30.60
2020,01,15,07,06,25.70
2020,01,15,07,07,25.70
2020,01,15,07,08,24.20
2020,01,15,07,09,22.50
2020,01,15,07,10,25.70
2020,01,15,07,11,30.60
2020,01,15,07,12,30.60
2020,01,15,07,13,30.60
2020,01,15,07,14,27.40
2020,01,15,07,15,33.80
2020,01,15,07,16,30.60
2020,01,15,07,17,30.60
2020,01,15,07,18,30.60
2020,01,15,07,19,27.40
2020,01,15,07,20,27.40
2020,01,15,07,21,29.00
2020,01,15,07,22,22.50
2020,01,15,07,23,27.40
2020,01,15,07,24,17.70
2020,01,15,07,25,35.40
2020,01,15,07,26,17.70
2020,01,15,07,27,24.20
2020,01,15,07,28,30.60
2020,01,15,07,29,27.40
2020,01,15,07,30,25.70
2020,01,15,07,31,30.60
2020,01,15,07,32,29.00
2020,01,15,07,33,27.40
2020,01,15,07,34,25.70
2020,01,15,07,35,29.00
2020,01,15,07,36,24.20
2020,01,15,07,37,25.70
2020,01,15,07,38,24.20
2020,01,15,07,39,25.70
2020,01,15,07,40,22.50
2020,01,15,07,41,20.90
2020,01,15,07,42,24.20
2020,01,15,07,43,25.70
2020,01,15,07,44,24.20
2020,01,15,07,45,30.60
2020,01,15,07,46,32.20
2020,01,15,07,47,25.70
2020,01,15,07,48,25.70
2020,01,15,07,49,30.60
2020,01,15,07,50,30.60
2020,01,15,07,51,33.80
2020,01,15,07,52,32.20
2020,01,15,07,53,29.00
2020,01,15,07,54,24.20
2020,01,15,07,55,29.00
2020,01,15,07,56,29.00
2020,01,15,07,57,22.50
2020,01,15,07,58,25.70
2020,01,15,07,59,22.50
2020,01,15,08,00,25.70
2020,01,15,08,01,22.50
2020,01,15,08,02,25.70
2020,01,15,08,03,35.40
2020,01,15,08,04,29.00
2020,01,15,08,05,33.80
2020,01,15,08,06,30.60
2020,01,15,08,07,20.90
2020,01,15,08,08,20.90
2020,01,15,08,09,17.70
2020,01,15,08,10,19.30
2020,01,15,08,11,22.50
2020,01,15,08,12,24.20
2020,01,15,08,13,29.00
2020,01,15,08,14,24.20
2020,01,15,08,15,25.70
2020,01,15,08,16,25.70
2020,01,15,08,17,22.50
2020,01,15,08,18,24.20
2020,01,15,08,19,29.00
2020,01,15,08,20,27.40
2020,01,15,08,21,22.50
2020,01,15,08,22,24.20
2020,01,15,08,23,22.50
2020,01,15,08,24,25.70
2020,01,15,08,25,20.90
2020,01,15,08,26,27.40
2020,01,15,08,27,25.70
2020,01,15,08,28,25.70
2020,01,15,08,29,30.60
2020,01,15,08,30,19.30
2020,01,15,08,31,19.30
2020,01,15,08,32,22.50
2020,01,15,08,33,20.90
2020,01,15,08,34,24.20
2020,01,15,08,35,25.70
2020,01,15,08,36,24.20
2020,01,15,08,37,29.00
2020,01,15,08,38,20.90
2020,01,15,08,39,27.40
2020,01,15,08,40,19.30
2020,01,15,08,41,24.20
2020,01,15,08,42,22.50
2020,01,15,08,43,22.50
2020,01,15,08,44,27.40
2020,01,15,08,45,25.70
2020,01,15,08,46,22.50
2020,01,15,08,47,22.50
2020,01,15,08,48,24.20
2020,01,15,08,49,30.60
2020,01,15,08,50,27.40
2020,01,15,08,51,20.90
2020,01,15,08,52,24.20
2020,01,15,08,53,25.70
2020,01,15,08,54,30.60
2020,01,15,08,55,32.20
2020,01,15,08,56,29.00
2020,01,15,08,57,30.60
2020,01,15,08,58,32.20
2020,01,15,08,59,29.00
2020,01,15,09,00,29.00
2020,01,15,09,01,27.40
2020,01,15,09,02,25.70
2020,01,15,09,03,20.90
2020,01,15,09,04,24.20
2020,01,15,09,05,20.90
2020,01,15,09,06,22.50
2020,01,15,09,07,20.90
2020,01,15,09,08,24.20
2020,01,15,09,09,20.90
2020,01,15,09,10,25.70
2020,01,15,09,11,30.60
2020,01,15,09,12,24.20
2020,01,15,09,13,16.10
2020,01,15,09,14,22.50
2020,01,15,09,15,24.20
2020,01,15,09,16,25.70
2020,01,15,09,17,9.60
2020,01,15,09,18,19.30
2020,01,15,09,19,20.90
2020,01,15,09,20,24.20
2020,01,15,09,21,24.20
2020,01,15,09,22,17.70
2020,01,15,09,23,19.30
2020,01,15,09,24,22.50
2020,01,15,09,25,25.70
2020,01,15,09,26,19.30
2020,01,15,09,27,20.90
2020,01,15,09,28,14.50
2020,01,15,09,29,20.90
2020,01,15,09,30,22.50
2020,01,15,09,31,20.90
2020,01,15,09,32,20.90
2020,01,15,09,33,17.70
2020,01,15,09,34,19.30
2020,01,15,09,35,6.40
2020,01,15,09,36,17.70
2020,01,15,09,37,17.70
2020,01,15,09,38,9.60
2020,01,15,09,39,6.40
2020,01,15,09,40,9.60
2020,01,15,09,41,6.40
2020,01,15,09,42,4.80
2020,01,15,09,43,8.10
2020,01,15,09,44,6.40
2020,01,15,09,45,16.10
2020,01,15,09,46,14.50
2020,01,15,09,47,14.50
2020,01,15,09,48,11.30
2020,01,15,09,49,11.30
2020,01,15,09,50,11.30
2020,01,15,09,51,14.50
2020,01,15,09,52,8.10
2020,01,15,09,53,6.40
2020,01,15,09,54,3.20
2020,01,15,09,55,3.20
2020,01,15,09,56,8.10
2020,01,15,09,57,9.60
2020,01,15,09,58,9.60
2020,01,15,09,59,17.70
2020,01,15,10,00,9.60
2020,01,15,10,01,6.40
2020,01,15,10,02,14.50
2020,01,15,10,03,14.50
2020,01,15,10,04,9.60
2020,01,15,10,05,12.90
2020,01,15,10,06,11.30
2020,01,15,10,07,8.10
2020,01,15,10,08,8.10
2020,01,15,10,09,11.30
2020,01,15,10,10,11.30
2020,01,15,10,11,8.10
2020,01,15,10,12,9.60
2020,01,15,10,13,9.60
2020,01,15,10,14,20.90
2020,01,15,10,15,20.90
2020,01,15,10,16,22.50
2020,01,15,10,17,32.20
2020,01,15,10,18,25.70
2020,01,15,10,19,27.40
2020,01,15,10,20,29.00
2020,01,15,10,21,27.40
2020,01,15,10,22,22.50
2020,01,15,10,23,19.30
2020,01,15,10,24,14.50
2020,01,15,10,25,24.20
2020,01,15,10,26,30.60
2020,01,15,10,27,25.70
2020,01,15,10,28,20.90
2020,01,15,10,29,35.40
2020,01,15,10,30,25.70
2020,01,15,10,31,33.80
2020,01,15,10,32,30.60
2020,01,15,10,33,22.50
2020,01,15,10,34,29.00
2020,01,15,10,35,32.20
2020,01,15,10,36,30.60
2020,01,15,10,37,29.00
2020,01,15,10,38,25.70
2020,01,15,10,39,32.20
2020,01,15,10,40,20.90
2020,01,15,10,41,16.10
2020,01,15,10,42,16.10
2020,01,15,10,43,16.10
2020,01,15,10,44,20.90
2020,01,15,10,45,27.40
2020,01,15,10,46,24.20
2020,01,15,10,47,24.20
2020,01,15,10,48,25.70
2020,01,15,10,49,30.60
2020,01,15,10,50,17.70
2020,01,15,10,51,29.00
2020,01,15,10,52,20.90
2020,01,15,10,53,20.90
2020,01,15,10,54,19.30
2020,01,15,10,55,27.40
2020,01,15,10,56,27.40
2020,01,15,10,57,29.00
2020,01,15,10,58,14.50
2020,01,15,10,59,11.30
2020,01,15,11,00,17.70
2020,01,15,11,01,24.20
2020,01,15,11,02,25.70
2020,01,15,11,03,16.10
2020,01,15,11,04,16.10
2020,01,15,11,05,22.50
2020,01,15,11,06,20.90
2020,01,15,11,07,19.30
2020,01,15,11,08,22.50
2020,01,15,11,09,29.00
2020,01,15,11,10,29.00
2020,01,15,11,11,27.40
2020,01,15,11,12,30.60
2020,01,15,11,13,27.40
2020,01,15,11,14,30.60
2020,01,15,11,15,27.40
2020,01,15,11,16,25.70
2020,01,15,11,17,22.50
2020,01,15,11,18,17.70
2020,01,15,11,19,30.60
2020,01,15,11,20,22.50
2020,01,15,11,21,20.90
2020,01,15,11,22,17.70
2020,01,15,11,23,16.10
2020,01,15,11,24,17.70
2020,01,15,11,25,24.20
2020,01,15,11,26,20.90
2020,01,15,11,27,25.70
2020,01,15,11,28,27.40
2020,01,15,11,29,22.50
2020,01,15,11,30,25.70
2020,01,15,11,31,16.10
2020,01,15,11,32,25.70
2020,01,15,11,33,32.20
2020,01,15,11,34,17.70
2020,01,15,11,35,33.80
2020,01,15,11,36,33.80
2020,01,15,11,37,19.30
2020,01,15,11,38,19.30
2020,01,15,11,39,19.30
2020,01,15,11,40,29.00
2020,01,15,11,41,24.20
2020,01,15,11,42,20.90
2020,01,15,11,43,17.70
2020,01,15,11,44,19.30
2020,01,15,11,45,27.40
2020,01,15,11,46,29.00
2020,01,15,11,47,17.70
2020,01,15,11,48,24.20
2020,01,15,11,49,20.90
2020,01,15,11,50,17.70
2020,01,15,11,51,17.70
2020,01,15,11,52,11.30
2020,01,15,11,53,11.30
2020,01,15,11,54,24.20
2020,01,15,11,55,11.30
2020,01,15,11,56,20.90
2020,01,15,11,57,25.70
2020,01,15,11,58,14.50
2020,01,15,11,59,20.90
2020,01,15,12,00,16.10
2020,01,15,12,01,17.70
2020,01,15,12,02,14.50
2020,01,15,12,03,17.70
2020,01,15,12,04,12.90
2020,01,15,12,05,19.30
2020,01,15,12,06,16.10
2020,01,15,12,07,16.10
2020,01,15,12,08,16.10
2020,01,15,12,09,14.50
2020,01,15,12,10,9.60
2020,01,15,12,11,17.70
2020,01,15,12,12,6.40
2020,01,15,12,13,16.10
2020,01,15,12,14,19.30
2020,01,15,12,15,19.30
2020,01,15,12,16,11.30
2020,01,15,12,17,20.90
2020,01,15,12,18,16.10
2020,01,15,12,19,12.90
2020,01,15,12,20,8.10
2020,01,15,12,21,9.60
2020,01,15,12,22,6.40
2020,01,15,12,23,8.10
2020,01,15,12,24,8.10
2020,01,15,12,25,9.60
2020,01,15,12,26,20.90
2020,01,15,12,27,24.20
2020,01,15,12,28,16.10
2020,01,15,12,29,16.10
2020,01,15,12,30,14.50
2020,01,15,12,31,8.10
2020,01,15,12,32,19.30
2020,01,15,12,33,19.30
2020,01,15,12,34,20.90
2020,01,15,12,35,19.30
2020,01,15,12,36,14.50
2020,01,15,12,37,9.60
2020,01,15,12,38,1.60
2020,01,15,12,39,8.10
2020,01,15,12,40,6.40
2020,01,15,12,41,4.80
2020,01,15,12,42,4.80
2020,01,15,12,43,8.10
2020,01,15,12,44,6.40
2020,01,15,12,45,6.40
2020,01,15,12,46,6.40
2020,01,15,12,47,6.40
2020,01,15,12,48,8.10
2020,01,15,12,49,9.60
2020,01,15,12,50,9.60
2020,01,15,12,51,9.60
2020,01,15,12,52,9.60
2020,01,15,12,53,8.10
2020,01,15,12,54,9.60
2020,01,15,12,55,9.60
2020,01,15,12,56,6.40
2020,01,15,12,57,8.10
2020,01,15,12,58,16.10
2020,01,15,12,59,27.40
2020,01,15,13,00,8.10
2020,01,15,13,01,11.30
2020,01,15,13,02,11.30
2020,01,15,13,03,20.90
2020,01,15,13,04,19.30
2020,01,15,13,05,24.20
2020,01,15,13,06,22.50
2020,01,15,13,07,40.20
2020,01,15,13,08,32.20
2020,01,15,13,09,40.20
2020,01,15,13,10,17.70
2020,01,15,13,11,29.00
2020,01,15,13,12,17.70
2020,01,15,13,13,29.00
2020,01,15,13,14,29.00
2020,01,15,13,15,27.40
2020,01,15,13,16,25.70
2020,01,15,13,17,35.40
2020,01,15,13,18,27.40
2020,01,15,13,19,30.60
2020,01,15,13,20,17.70
2020,01,15,13,21,19.30
2020,01,15,13,22,32.20
2020,01,15,13,23,40.20
2020,01,15,13,24,35.40
2020,01,15,13,25,20.90
2020,01,15,13,26,40.20
2020,01,15,13,27,38.60
2020,01,15,13,28,37.00
2020,01,15,13,29,45.10
2020,01,15,13,30,37.00
2020,01,15,13,31,30.60
2020,01,15,13,32,46.70
2020,01,15,13,33,45.10
2020,01,15,13,34,49.90
2020,01,15,13,35,49.90
2020,01,15,13,36,40.20
2020,01,15,13,37,43.50
2020,01,15,13,38,46.70
2020,01,15,13,39,38.60
2020,01,15,13,40,35.40
2020,01,15,13,41,41.80
2020,01,15,13,42,30.60
2020,01,15,13,43,45.10
2020,01,15,13,44,41.80
2020,01,15,13,45,46.70
2020,01,15,13,46,46.70
2020,01,15,13,47,30.60
2020,01,15,13,48,49.90
2020,01,15,13,49,53.10
2020,01,15,13,50,45.10
2020,01,15,13,51,37.00
2020,01,15,13,52,48.30
2020,01,15,13,53,49.90
2020,01,15,13,54,53.10
2020,01,15,13,55,48.30
2020,01,15,13,56,38.60
2020,01,15,13,57,40.20
2020,01,15,13,58,43.50
2020,01,15,13,59,37.00
2020,01,15,14,00,29.00
2020,01,15,14,01,45.10
2020,01,15,14,02,35.40
2020,01,15,14,03,41.80
2020,01,15,14,04,53.10
2020,01,15,14,05,43.50
2020,01,15,14,06,40.20
2020,01,15,14,07,48.30
2020,01,15,14,08,48.30
2020,01,15,14,09,32.20
2020,01,15,14,10,35.40
2020,01,15,14,11,37.00
2020,01,15,14,12,41.80
2020,01,15,14,13,40.20
2020,01,15,14,14,53.10
2020,01,15,14,15,54.70
2020,01,15,14,16,46.70
2020,01,15,14,17,48.30
2020,01,15,14,18,41.80
2020,01,15,14,19,45.10
2020,01,15,14,20,27.40
2020,01,15,14,21,64.40
2020,01,15,14,22,56.30
2020,01,15,14,23,59.50
2020,01,15,14,24,57.90
2020,01,15,14,25,43.50
2020,01,15,14,26,45.10
2020,01,15,14,27,57.90
2020,01,15,14,28,54.70
2020,01,15,14,29,51.50
2020,01,15,14,30,43.50
2020,01,15,14,31,40.20
2020,01,15,14,32,53.10
2020,01,15,14,33,46.70
2020,01,15,14,34,38.60
2020,01,15,14,35,61.20
2020,01,15,14,36,51.50
2020,01,15,14,37,49.90
2020,01,15,14,38,45.10
2020,01,15,14,39,49.90
2020,01,15,14,40,51.50
2020,01,15,14,41,40.20
2020,01,15,14,42,38.60
2020,01,15,14,43,54.70
2020,01,15,14,44,48.30
2020,01,15,14,45,43.50
2020,01,15,14,46,41.80
2020,01,15,14,47,46.70
2020,01,15,14,48,49.90
2020,01,15,14,49,46.70
2020,01,15,14,50,53.10
2020,01,15,14,51,41.80
2020,01,15,14,52,33.80
2020,01,15,14,53,35.40
2020,01,15,14,54,56.30
2020,01,15,14,55,45.10
2020,01,15,14,56,46.70
2020,01,15,14,57,40.20
2020,01,15,14,58,30.60
2020,01,15,14,59,43.50
2020,01,15,15,00,43.50
2020,01,15,15,01,43.50
2020,01,15,15,02,46.70
2020,01,15,15,03,51.50
2020,01,15,15,04,48.30
2020,01,15,15,05,38.60
2020,01,15,15,06,30.60
2020,01,15,15,07,45.10
2020,01,15,15,08,48.30
2020,01,15,15,09,40.20
2020,01,15,15,10,38.60
2020,01,15,15,11,53.10
2020,01,15,15,12,57.90
2020,01,15,15,13,49.90
2020,01,15,15,14,51.50
2020,01,15,15,15,38.60
2020,01,15,15,16,49.90
2020,01,15,15,17,49.90
2020,01,15,15,18,41.80
2020,01,15,15,19,30.60
2020,01,15,15,20,25.70
2020,01,15,15,21,32.20
2020,01,15,15,22,40.20
2020,01,15,15,23,37.00
2020,01,15,15,24,38.60
2020,01,15,15,25,49.90
2020,01,15,15,26,38.60
2020,01,15,15,27,37.00
2020,01,15,15,28,38.60
2020,01,15,15,29,49.90
2020,01,15,15,30,32.20
2020,01,15,15,31,40.20
2020,01,15,15,32,51.50
2020,01,15,15,33,45.10
2020,01,15,15,34,49.90
2020,01,15,15,35,40.20
2020,01,15,15,36,35.40
2020,01,15,15,37,35.40
2020,01,15,15,38,41.80
2020,01,15,15,39,45.10
2020,01,15,15,40,45.10
2020,01,15,15,41,35.40
2020,01,15,15,42,32.20
2020,01,15,15,43,43.50
2020,01,15,15,44,45.10
2020,01,15,15,45,43.50
2020,01,15,15,46,53.10
2020,01,15,15,47,49.90
2020,01,15,15,48,40.20
2020,01,15,15,49,37.00
2020,01,15,15,50,45.10
2020,01,15,15,51,43.50
2020,01,15,15,52,48.30
2020,01,15,15,53,41.80
2020,01,15,15,54,40.20
2020,01,15,15,55,45.10
2020,01,15,15,56,45.10
2020,01,15,15,57,43.50
2020,01,15,15,58,43.50
2020,01,15,15,59,43.50
2020,01,15,16,00,45.10
2020,01,15,16,01,41.80
2020,01,15,16,02,46.70
2020,01,15,16,03,43.50
2020,01,15,16,04,37.00
2020,01,15,16,05,35.40
2020,01,15,16,06,35.40
2020,01,15,16,07,43.50
2020,01,15,16,08,41.80
2020,01,15,16,09,41.80
2020,01,15,16,10,53.10
2020,01,15,16,11,46.70
2020,01,15,16,12,45.10
2020,01,15,16,13,38.60
2020,01,15,16,14,35.40
2020,01,15,16,15,37.00
2020,01,15,16,16,41.80
2020,01,15,16,17,30.60
2020,01,15,16,18,45.10
2020,01,15,16,19,54.70
2020,01,15,16,20,43.50
2020,01,15,16,21,35.40
2020,01,15,16,22,22.50
2020,01,15,16,23,30.60
2020,01,15,16,24,30.60
2020,01,15,16,25,48.30
2020,01,15,16,26,38.60
2020,01,15,16,27,27.40
2020,01,15,16,28,38.60
2020,01,15,16,29,35.40
2020,01,15,16,30,33.80
2020,01,15,16,31,29.00
2020,01,15,16,32,46.70
2020,01,15,16,33,32.20
2020,01,15,16,34,29.00
2020,01,15,16,35,32.20
2020,01,15,16,36,32.20
2020,01,15,16,37,25.70
2020,01,15,16,38,24.20
2020,01,15,16,39,30.60
2020,01,15,16,40,29.00
2020,01,15,16,41,20.90
2020,01,15,16,42,30.60
2020,01,15,16,43,37.00
2020,01,15,16,44,37.00
2020,01,15,16,45,40.20
2020,01,15,16,46,37.00
2020,01,15,16,47,33.80
2020,01,15,16,48,25.70
2020,01,15,16,49,37.00
2020,01,15,16,50,29.00
2020,01,15,16,51,40.20
2020,01,15,16,52,35.40
2020,01,15,16,53,35.40
2020,01,15,16,54,37.00
2020,01,15,16,55,32.20
2020,01,15,16,56,38.60
2020,01,15,16,57,38.60
2020,01,15,16,58,35.40
2020,01,15,16,59,37.00
2020,01,15,17,00,38.60
2020,01,15,17,01,40.20
2020,01,15,17,02,37.00
2020,01,15,17,03,30.60
2020,01,15,17,04,29.00
2020,01,15,17,05,30.60
2020,01,15,17,06,29.00
2020,01,15,17,07,27.40
2020,01,15,17,08,32.20
2020,01,15,17,09,35.40
2020,01,15,17,10,40.20
2020,01,15,17,11,35.40
2020,01,15,17,12,37.00
2020,01,15,17,13,32.20
2020,01,15,17,14,32.20
2020,01,15,17,15,29.00
2020,01,15,17,16,25.70
2020,01,15,17,17,35.40
2020,01,15,17,18,33.80
2020,01,15,17,19,41.80
2020,01,15,17,20,38.60
2020,01,15,17,21,45.10
2020,01,15,17,22,40.20
2020,01,15,17,23,41.80